Location: Ebendorf
(52.1827°N, 11.5706°E)
Time: 09:11:46
(UTC+00:00)

Cosmos 2056 Rocket - Pass Details

Date: 15 May 2021
Orbit: 741 x 801 km, 74.0° (Epoch: 20 June)

Event Time Altitude Azimuth Distance (km) Brightness Sun altitude
Exits shadow 01:37:19 13° 187° (S) 2,046 5.2 -12.0°
Maximum altitude 01:41:47 60° 110° (ESE) 849 3.8 -11.6°
Drops below altitude 10° 01:46:51 10° 31° (NNE) 2,278 7.5 -11.2°
Sets 01:49:15 0° 28° (NNE) 3,213 8.7 -11.0°
